Location: Peterborough
(44.3091°N, 78.3197°W)
Time: 19:55:50
(UTC-04:00)

Tiros 1 - Pass Details

Date: 31 March 2023
Orbit: 627 x 661 km, 48.4° (Epoch: 04 June)

Event Time Altitude Azimuth Distance (km) Brightness Sun altitude
Exits shadow 05:17:38 35° 253° (WSW) 1,058 7.7 -17.8°
Maximum altitude 05:19:38 83° 339° (NNW) 669 7.1 -17.5°
Drops below altitude 10° 05:24:27 10° 67° (ENE) 2,079 11.1 -16.7°
Sets 05:26:48 0° 68° (ENE) 2,992 12.4 -16.3°
